Hourly Data Report for November 12, 2019

All times are specified in Local Standard Time (LST). Add 1 hour to adjust for Daylight Saving Time where and when it is observed.

SEPT-ILES
QUEBEC
Current Station Operator: ECCC - MSC

50°13'00.000" N
66°15'00.000" W
52.60 m
7047914
71279
XZV

Download Data

Hourly Data (November 2019)
Hourly Data Report for November 12, 2019
TIME Temp Definition
°C
Dew Point Definition
°C
Rel Hum Definition
%
Wind Dir Definition
10's deg

Wind Spd Definition
km/h
Visibility Definition
km
Stn Press Definition
kPa
Hmdx Definition


Wind Chill Definition


Weather Definition


00:00 -9.2 -12.5 77 34 6   101.90   -13 LegendNANA
01:00 -9.4 -12.4 79 35 5   101.87   -12 LegendNANA
02:00 -8.9 -12.0 78 36 5   101.86   -12 LegendNANA
03:00 -8.8 -12.2 77 36 8   101.81   -13 LegendNANA
04:00 -8.8 -11.9 78 36 6   101.75   -12 LegendNANA
05:00 -8.8 -11.5 81 1 6   101.71   -12 LegendNANA
06:00 -8.5 -11.2 81 2 8   101.60   -13 LegendNANA
07:00 -8.3 -10.3 85 3 9   101.56   -13 LegendNANA
08:00 -8.1 -9.7 88 3 12   101.45   -14 LegendNANA
09:00 -7.9 -9.4 89 3 10   101.29   -13 LegendNANA
10:00 -7.5 -8.9 89 2 14   101.16   -13 LegendNANA
11:00 -7.4 -8.8 90 2 14   100.93   -13 LegendNANA
12:00 -7.1 -8.4 90 2 14   100.72   -13 LegendNANA
13:00 -6.8 -8.1 90 2 15   100.57   -13 LegendNANA
14:00 -6.7 -7.9 91 2 15   100.44   -13 LegendNANA
15:00 -6.8 -7.9 91 2 14   100.33   -13 LegendNANA
16:00 -6.8 -8.1 90 2 17   100.20   -13 LegendNANA
17:00 -6.8 -8.1 90 2 16   100.07   -13 LegendNANA
18:00 -6.8 -8.2 90 1 20   99.92   -14 LegendNANA
19:00 -6.8 -8.4 89 2 19   99.76   -14 LegendNANA
20:00 -6.7 -8.9 84 1 16   99.62   -13 LegendNANA
21:00 -6.9 -8.8 87 1 14   99.56   -13 LegendNANA
22:00 -6.8 -9.1 84 36 16   99.40   -13 LegendNANA
23:00 -6.9 -9.2 84 36 17   99.30   -13 LegendNANA

Notes on Data Quality.

Legend

  • E = Estimated
  • M = Missing
  • NA = Not Available
Date modified: